Location: Theodore Roosevelt National Park
(46.9990°N, 103.4631°W)
Time: 01:58:26
(UTC-06:00)

Iridium 37 - Visible Passes

Search period start: 26 April 2017 00:00
Search period end: 06 May 2017 00:00
Orbit: 776 x 779 km, 86.4° (Epoch: 24 April)

Date Brightness Start Highest point End Pass type
(mag) Time Alt. Az. Time Alt. Az. Time Alt. Az.
26 Apr 5.9 21:08:45 10° N 21:13:57 67° W 21:19:06 10° S visible
27 Apr 5.5 20:35:11 10° N 20:40:26 72° E 20:45:38 10° S visible
27 Apr 8.2 22:17:23 10° NW 22:20:30 16° WNW 22:23:38 10° WSW visible
28 Apr 7.5 21:42:56 10° NNW 21:47:18 28° W 21:51:39 10° SW visible
29 Apr 6.6 21:08:58 10° NNW 21:13:58 47° W 21:18:56 10° SSW visible
30 Apr 5.7 20:35:16 10° N 20:40:31 83° W 20:45:44 10° S visible
30 Apr 8.5 22:18:42 10° NW 22:20:20 11° WNW 22:21:58 10° W visible
01 May 8.1 21:43:29 10° NNW 21:47:12 20° WNW 21:50:55 10° SW visible
02 May 7.3 21:09:16 10° NNW 21:13:56 34° W 21:18:36 10° SSW visible
03 May 6.3 20:35:25 10° N 20:40:34 59° W 20:45:40 10° SSW visible
04 May 8.4 21:44:19 10° NW 21:47:03 14° WNW 21:49:48 10° WSW visible
05 May 7.9 21:09:42 10° NNW 21:13:52 25° W 21:18:02 10° SW visible
